Temp_Advection
nan nan nan nan nan nan nan nan nan nan nan nan nan nan nan nan nan nan nan nan nan nan nan nan nan nan nan nan nan nan nan nan nan
nan -0 0 0 0 0 -0 -0 -0 -0 0 0 -0 -0 -0 -0 -0 0 -0 -0 1 0 0 -0 -0 0 0 0 -1 -1 0 0 nan
nan -0 0 0 0 0 0 0 -0 -0 -0 0 -0 -0 -0 -0 -0 -0 -0 -0 0 1 0 -0 -0 -0 0 0 -0 -0 0 0 nan
nan -0 0 0 -0 -0 0 0 0 -0 -0 -0 -0 -0 -0 -0 0 -0 -0 0 0 0 0 -0 -0 -0 0 0 -0 -0 -0 0 nan
nan -1 -0 0 0 -0 -0 0 0 -0 -0 -0 -0 -0 -0 -0 -0 -0 -0 0 0 0 0 0 0 0 0 -0 -0 0 -0 -0 nan
nan 0 -0 0 0 0 0 -0 0 0 0 0 -0 -0 -0 -0 -0 0 0 0 0 0 0 0 -0 -0 -0 -0 -0 -0 0 0 nan
nan 0 -0 -0 0 0 0 0 -0 -0 0 0 -0 0 -0 0 -0 0 0 0 0 -0 -0 0 0 -0 -0 -0 -0 -0 0 0 nan
nan 0 0 0 0 -0 0 0 0 0 0 0 0 0 -0 0 -0 0 0 0 0 -0 -0 -0 -0 -0 -0 -0 -0 0 -0 -0 nan
nan 0 0 0 0 0 0 0 -0 -0 0 0 0 0 0 0 -0 -0 -0 0 -0 -0 -0 -0 -0 -0 -0 -0 -0 -0 -0 -0 nan
nan -0 0 0 0 0 0 0 0 -0 -0 -0 -0 0 0 -0 -0 -0 -0 -0 -0 -0 -0 -0 -0 -0 -0 -0 -0 -0 -0 -0 nan
nan -0 0 0 0 0 -0 0 0 0 -0 -0 0 0 0 0 0 0 -0 -0 0 -0 -0 -0 -0 -0 -0 -0 -0 -0 -0 -0 nan
nan 0 -0 0 0 -0 -0 -0 -0 0 -0 0 0 0 0 0 0 0 -0 0 0 0 0 -0 -0 -0 -0 -0 -0 -0 -0 -0 nan
nan 0 0 0 -0 -0 0 0 -0 0 -0 -0 0 0 0 0 0 -0 0 0 0 -0 -0 -0 -0 -0 -0 -0 -0 -0 -0 -0 nan
nan -0 0 -0 -0 0 0 0 -0 -0 0 0 0 0 0 0 0 0 0 0 0 0 0 0 -0 -0 0 -0 -0 -0 -0 -0 nan
nan 0 0 -0 -0 0 0 0 -0 -0 0 0 0 0 0 0 0 0 0 0 -0 -0 0 0 0 0 0 0 -0 -0 -0 -0 nan
nan 0 0 0 0 0 0 -0 0 0 -0 0 0 -0 -0 0 0 0 0 0 0 0 -0 -0 -0 0 0 0 0 -0 -0 -0 nan
nan 0 0 0 0 0 0 0 0 0 0 0 0 0 -0 -0 -0 0 0 0 0 0 0 0 -0 0 0 0 0 -0 0 0 nan
nan 0 0 0 0 0 0 0 0 0 0 0 0 0 0 0 0 0 -0 1 0 0 1 0 -0 0 0 0 0 0 0 0 nan
nan 0 1 0 0 0 0 0 0 0 0 0 0 0 0 0 0 0 0 1 0 0 0 0 0 0 0 0 0 0 0 0 nan
nan nan nan nan nan nan nan nan nan nan nan nan nan nan nan nan nan nan nan nan nan nan nan nan nan nan nan nan nan nan nan nan nan
Wind_Speed
11 11 9 8 9 9 8 9 9 8 11 13 17 19 17 13 11 10 11 14 14 13 14 16 17 17 17 19 20 22 22 22 22
12 11 9 7 8 7 7 8 7 7 9 12 16 19 17 9 4 6 12 13 14 14 14 13 16 16 16 18 21 23 22 21 22
8 11 9 10 7 7 6 6 6 6 9 11 14 17 15 8 7 7 9 13 13 13 14 15 13 14 15 17 19 20 21 21 20
11 11 9 9 9 6 5 6 6 7 9 10 13 16 14 9 7 7 10 11 11 12 13 13 13 12 14 16 17 18 19 20 20
11 12 9 10 8 7 5 6 7 8 8 8 10 13 13 6 7 9 10 12 12 12 11 12 12 13 12 13 15 16 17 18 19
11 11 12 10 9 7 7 8 9 10 9 8 9 12 12 4 5 6 8 11 12 12 13 13 12 12 12 13 13 14 15 16 17
12 12 14 11 10 7 7 8 10 10 11 11 12 12 8 0 3 3 5 10 11 13 14 15 16 15 13 12 12 12 13 14 14
12 12 14 14 14 13 10 10 8 6 4 5 9 8 3 2 2 3 4 6 8 10 12 13 14 15 16 14 12 11 11 12 13
14 12 12 13 13 11 11 14 11 8 6 6 9 5 6 1 4 5 2 4 6 7 8 9 10 11 13 14 14 13 11 10 10
14 12 16 13 14 12 11 10 12 11 8 7 10 9 8 5 2 4 3 2 3 4 5 6 7 8 8 10 11 12 13 11 10
10 1 12 16 18 14 15 13 14 13 12 9 8 12 10 6 5 1 1 1 0 2 4 3 5 9 4 7 7 9 10 11 11
7 5 1 10 14 10 11 9 19 14 12 13 9 12 12 9 5 2 5 5 4 3 3 2 4 4 7 6 7 7 8 9 10
1 8 4 4 1 7 8 13 14 12 10 15 17 14 14 14 12 11 13 10 6 5 6 6 6 6 5 5 4 5 6 6 7
3 3 4 4 7 7 7 6 11 14 15 14 17 16 16 16 16 15 14 14 13 11 10 9 10 8 6 4 4 6 5 6 6
8 6 9 8 5 9 14 10 6 10 13 15 16 18 15 24 21 18 16 15 17 17 16 16 15 13 13 8 7 4 5 6 6
16 13 14 14 11 12 13 11 13 7 6 8 11 15 16 15 19 14 19 16 18 19 17 19 16 15 14 12 10 8 6 5 7
20 18 20 17 14 10 8 12 13 11 9 4 5 4 9 17 19 20 21 18 21 22 22 20 20 17 16 15 13 11 11 5 7
20 20 22 20 16 14 12 9 9 13 10 11 9 6 6 4 8 15 22 27 25 23 22 17 20 20 19 18 17 15 13 14 12
19 22 23 22 19 15 14 13 12 13 11 11 11 12 12 8 7 13 14 19 22 21 22 23 17 20 21 20 20 19 17 15 17
18 19 20 19 19 17 15 14 15 15 14 15 13 10 12 12 11 7 12 15 17 21 19 17 16 16 19 19 21 20 17 16 17
Wind_Direction
151 134 144 134 127 147 131 136 129 115 106 98 100 91 82 77 60 45 71 70 73 81 73 89 72 59 58 62 65 65 63 61 62
147 140 148 138 135 137 119 120 137 123 116 101 103 95 89 88 69 15 70 67 71 75 76 81 82 65 58 60 65 63 60 59 61
156 150 152 130 140 135 126 118 115 133 126 112 108 98 86 72 25 50 76 75 68 72 75 77 80 72 62 65 68 70 66 60 61
171 159 156 151 147 129 125 115 101 119 134 119 114 104 92 79 43 24 73 70 69 69 71 72 75 72 65 69 69 71 72 67 62
171 166 163 165 152 141 129 122 99 100 127 126 117 100 82 76 49 26 57 69 66 68 71 70 67 67 67 69 70 69 69 69 69
171 176 165 163 159 146 126 118 98 85 84 100 121 97 85 53 54 4 57 66 70 69 69 69 66 64 63 66 71 70 68 68 67
180 176 172 171 167 150 133 122 99 81 71 86 83 87 91 332 26 26 54 64 74 76 73 69 65 63 63 62 65 69 69 67 65
202 190 187 181 177 164 167 135 106 76 81 77 66 72 82 354 4 351 58 78 80 79 76 70 65 61 59 59 60 62 66 68 64
206 214 198 190 187 198 180 166 154 170 169 164 151 139 111 261 351 9 35 73 85 80 71 65 59 56 55 54 55 56 59 62 65
213 225 227 204 201 203 200 195 180 194 200 183 177 140 156 167 90 4 2 59 79 77 64 59 52 49 49 47 48 51 53 55 58
147 40 227 215 229 232 234 211 197 196 207 220 185 163 183 192 230 197 47 348 111 78 45 41 57 43 37 40 44 44 47 50 51
118 108 83 221 225 217 233 255 236 234 239 228 216 194 185 196 213 253 260 264 243 224 258 318 337 4 43 44 38 31 32 38 43
127 175 188 255 247 232 241 248 257 233 259 252 239 222 214 208 217 235 261 271 262 287 281 283 296 306 310 323 359 16 15 18 22
97 163 200 219 245 241 259 225 234 238 253 263 254 252 243 226 218 222 228 249 256 261 272 283 292 295 277 297 323 318 328 334 342
204 215 244 232 244 264 249 243 243 240 230 229 246 250 256 238 245 224 226 233 245 256 261 264 269 278 290 280 277 299 309 306 306
196 199 208 217 220 225 241 248 253 229 245 236 237 246 250 253 254 244 235 231 239 247 253 261 260 261 272 276 285 282 289 314 287
208 213 218 226 224 238 252 255 248 229 171 179 162 231 263 253 256 257 259 255 247 251 244 245 254 256 258 261 262 266 275 174 180
219 220 215 232 228 221 237 248 249 235 222 194 197 209 218 261 265 250 256 258 254 248 248 232 241 248 252 252 255 248 245 240 246
218 219 224 235 239 234 237 243 235 225 250 251 232 225 222 209 243 250 252 252 247 241 241 242 229 233 242 243 247 239 234 241 255
226 223 224 231 238 244 243 242 248 248 245 249 250 241 246 247 237 261 235 231 243 246 239 239 233 220 219 215 220 217 223 235 254
Height
1538 1540 1542 1542 1543 1544 1545 1547 1548 1549 1550 1551 1552 1553 1553 1553 1553 1551 1550 1549 1549 1549 1548 1548 1548 1547 1546 1545 1543 1542 1542 1541 1539
1540 1541 1542 1543 1545 1546 1547 1548 1549 1550 1552 1553 1554 1555 1556 1556 1554 1553 1553 1552 1551 1551 1551 1551 1551 1550 1549 1548 1547 1546 1545 1544 1542
1541 1543 1543 1544 1547 1548 1548 1549 1550 1551 1553 1555 1556 1557 1558 1558 1556 1556 1555 1555 1554 1553 1553 1553 1553 1553 1553 1551 1550 1550 1548 1547 1545
1540 1543 1545 1545 1547 1550 1550 1550 1551 1552 1554 1556 1557 1559 1559 1559 1559 1558 1557 1556 1556 1555 1555 1555 1556 1556 1555 1554 1554 1553 1552 1551 1549
1541 1542 1545 1547 1548 1550 1552 1552 1553 1554 1555 1557 1559 1560 1561 1562 1561 1560 1559 1558 1558 1558 1558 1558 1558 1558 1558 1557 1556 1556 1555 1554 1553
1541 1543 1545 1548 1549 1551 1553 1554 1555 1556 1557 1558 1560 1562 1563 1563 1564 1563 1562 1560 1561 1561 1561 1560 1560 1560 1560 1559 1559 1559 1558 1557 1556
1541 1543 1545 1548 1549 1552 1553 1556 1557 1558 1559 1561 1562 1563 1564 1565 1565 1565 1564 1564 1564 1563 1564 1564 1563 1562 1562 1562 1562 1561 1561 1560 1560
1542 1543 1545 1547 1549 1550 1553 1556 1559 1560 1561 1563 1564 1565 1566 1565 1566 1566 1567 1566 1567 1567 1567 1567 1566 1566 1565 1565 1564 1564 1563 1563 1563
1540 1543 1546 1548 1549 1551 1553 1554 1556 1558 1559 1561 1563 1564 1566 1566 1567 1567 1568 1569 1569 1569 1569 1569 1569 1569 1569 1568 1567 1566 1565 1565 1564
1540 1542 1545 1547 1549 1551 1553 1555 1556 1559 1559 1559 1563 1563 1565 1566 1568 1569 1569 1570 1571 1571 1572 1571 1571 1571 1571 1570 1570 1569 1568 1567 1566
1536 1540 1541 1544 1548 1550 1553 1554 1556 1557 1559 1560 1561 1562 1564 1565 1566 1569 1570 1571 1571 1572 1572 1573 1572 1572 1572 1572 1572 1572 1571 1569 1568
1533 1536 1539 1541 1544 1548 1550 1552 1554 1556 1558 1559 1560 1562 1563 1564 1566 1568 1571 1571 1571 1571 1573 1573 1573 1573 1573 1573 1573 1573 1573 1572 1570
1532 1535 1539 1540 1542 1544 1545 1549 1551 1553 1555 1557 1558 1561 1562 1563 1565 1566 1570 1571 1572 1572 1572 1573 1573 1574 1574 1574 1574 1574 1574 1573 1572
1527 1531 1535 1537 1541 1542 1543 1544 1548 1548 1551 1553 1555 1557 1559 1561 1561 1564 1566 1569 1571 1572 1573 1572 1572 1573 1573 1573 1574 1574 1574 1573 1573
1527 1531 1534 1537 1537 1536 1541 1543 1545 1545 1546 1548 1552 1554 1556 1559 1560 1561 1563 1565 1568 1570 1570 1571 1572 1572 1573 1573 1573 1573 1573 1573 1572
1523 1527 1532 1535 1533 1533 1537 1538 1542 1543 1544 1545 1548 1550 1553 1555 1557 1556 1559 1561 1563 1566 1566 1567 1568 1569 1571 1572 1572 1572 1572 1571 1571
1524 1526 1530 1532 1530 1530 1534 1537 1540 1541 1539 1542 1543 1548 1550 1550 1553 1553 1556 1558 1559 1562 1563 1564 1565 1566 1567 1569 1570 1570 1572 1571 1569
1522 1524 1527 1530 1529 1527 1531 1533 1536 1539 1539 1537 1539 1543 1543 1545 1548 1549 1550 1554 1557 1557 1559 1558 1560 1562 1562 1564 1566 1566 1568 1568 1569
1520 1521 1524 1526 1526 1523 1527 1531 1534 1535 1537 1539 1537 1537 1540 1540 1544 1545 1546 1548 1551 1551 1554 1556 1554 1556 1558 1558 1560 1561 1563 1564 1566
1519 1519 1521 1522 1522 1521 1525 1527 1531 1532 1533 1535 1537 1536 1537 1537 1540 1543 1544 1544 1541 1547 1549 1552 1552 1551 1552 1552 1555 1556 1557 1559 1561